owner,sensor,date,latitude,longitude,vertical_datum,sea_water_practical_salinity,qcFlag 
DISL,ioos:station:DISL:CATA:1,2013-01-01T00:00:00Z,30.3085,-88.1395,2.097,9.89,1111122 
DISL,ioos:station:DISL:CATA:1,2013-01-01T00:30:00Z,30.3085,-88.1395,2.107,10.44,1111122 
DISL,ioos:station:DISL:CATA:1,2013-01-01T01:00:00Z,30.3085,-88.1395,2.138,10.35,1111122 
DISL,ioos:station:DISL:CATA:1,2013-01-01T01:30:00Z,30.3085,-88.1395,2.169,10.4,1111122 
DISL,ioos:station:DISL:CATA:1,2013-01-01T02:00:00Z,30.3085,-88.1395,2.187,10.37,1111122 
DISL,ioos:station:DISL:CATA:1,2013-01-01T02:30:00Z,30.3085,-88.1395,2.219,10.48,1111122 
DISL,ioos:station:DISL:CATA:1,2013-01-01T03:00:00Z,30.3085,-88.1395,2.245,10.75,1111122 
DISL,ioos:station:DISL:CATA:1,2013-01-01T03:30:00Z,30.3085,-88.1395,2.274,11.04,1111122 
DISL,ioos:station:DISL:CATA:1,2013-01-01T04:00:00Z,30.3085,-88.1395,2.296,11.12,1111122 
DISL,ioos:station:DISL:CATA:1,2013-01-01T04:30:00Z,30.3085,-88.1395,2.305,12.7,1111122 
DISL,ioos:station:DISL:CATA:1,2013-01-01T05:00:00Z,30.3085,-88.1395,2.309,14.23,1111122 
DISL,ioos:station:DISL:CATA:1,2013-01-01T05:30:00Z,30.3085,-88.1395,2.296,17.64,1111122 
DISL,ioos:station:DISL:CATA:1,2013-01-01T06:00:00Z,30.3085,-88.1395,2.295,18.78,1111122 
DISL,ioos:station:DISL:CATA:1,2013-01-01T06:30:00Z,30.3085,-88.1395,2.286,19.39,1111122 
DISL,ioos:station:DISL:CATA:1,2013-01-01T07:00:00Z,30.3085,-88.1395,2.279,19.49,1111122 
DISL,ioos:station:DISL:CATA:1,2013-01-01T07:30:00Z,30.3085,-88.1395,2.277,19.32,1111122 
DISL,ioos:station:DISL:CATA:1,2013-01-01T08:00:00Z,30.3085,-88.1395,2.278,19.36,1111122 
DISL,ioos:station:DISL:CATA:1,2013-01-01T08:30:00Z,30.3085,-88.1395,2.266,19.5,1111122 
DISL,ioos:station:DISL:CATA:1,2013-01-01T09:00:00Z,30.3085,-88.1395,2.241,18.56,1111122 
DISL,ioos:station:DISL:CATA:1,2013-01-01T09:30:00Z,30.3085,-88.1395,2.228,19.46,1111122 
DISL,ioos:station:DISL:CATA:1,2013-01-01T10:00:00Z,30.3085,-88.1395,2.208,19.8,1111122 
DISL,ioos:station:DISL:CATA:1,2013-01-01T10:30:00Z,30.3085,-88.1395,2.171,15.86,1111122 
DISL,ioos:station:DISL:CATA:1,2013-01-01T11:00:00Z,30.3085,-88.1395,2.136,8.37,1111122 
DISL,ioos:station:DISL:CATA:1,2013-01-01T11:30:00Z,30.3085,-88.1395,2.104,7.36,1111122 
DISL,ioos:station:DISL:CATA:1,2013-01-01T12:00:00Z,30.3085,-88.1395,2.08,6.84,1111122 
DISL,ioos:station:DISL:CATA:1,2013-01-01T12:30:00Z,30.3085,-88.1395,2.06,6.8,1111122 
DISL,ioos:station:DISL:CATA:1,2013-01-01T13:00:00Z,30.3085,-88.1395,2.044,6.75,1111122 
DISL,ioos:station:DISL:CATA:1,2013-01-01T13:30:00Z,30.3085,-88.1395,2.032,6.71,1111122 
DISL,ioos:station:DISL:CATA:1,2013-01-01T14:00:00Z,30.3085,-88.1395,2.027,6.67,1111122 
DISL,ioos:station:DISL:CATA:1,2013-01-01T14:30:00Z,30.3085,-88.1395,2.025,6.55,1111122 
DISL,ioos:station:DISL:CATA:1,2013-01-01T15:00:00Z,30.3085,-88.1395,2.027,6.5,1111122 
DISL,ioos:station:DISL:CATA:1,2013-01-01T15:30:00Z,30.3085,-88.1395,2.036,6.43,1111122 
DISL,ioos:station:DISL:CATA:1,2013-01-01T16:00:00Z,30.3085,-88.1395,2.041,6.35,1111122 
DISL,ioos:station:DISL:CATA:1,2013-01-01T16:30:00Z,30.3085,-88.1395,2.038,6.27,1111122 
DISL,ioos:station:DISL:CATA:1,2013-01-01T17:00:00Z,30.3085,-88.1395,2.041,6.18,1111122 
DISL,ioos:station:DISL:CATA:1,2013-01-01T17:30:00Z,30.3085,-88.1395,2.05,6.07,1111122 
DISL,ioos:station:DISL:CATA:1,2013-01-01T18:00:00Z,30.3085,-88.1395,2.066,5.99,1111122 
DISL,ioos:station:DISL:CATA:1,2013-01-01T18:30:00Z,30.3085,-88.1395,2.083,5.99,1111122 
DISL,ioos:station:DISL:CATA:1,2013-01-01T19:00:00Z,30.3085,-88.1395,2.093,6.01,1111122 
DISL,ioos:station:DISL:CATA:1,2013-01-01T19:30:00Z,30.3085,-88.1395,2.108,6.0,1111122 
DISL,ioos:station:DISL:CATA:1,2013-01-01T20:00:00Z,30.3085,-88.1395,2.121,6.0,1111122 
DISL,ioos:station:DISL:CATA:1,2013-01-01T20:30:00Z,30.3085,-88.1395,2.143,5.99,1111122 
DISL,ioos:station:DISL:CATA:1,2013-01-01T21:00:00Z,30.3085,-88.1395,2.155,6.0,1111122 
DISL,ioos:station:DISL:CATA:1,2013-01-01T21:30:00Z,30.3085,-88.1395,2.172,6.1,1111122 
DISL,ioos:station:DISL:CATA:1,2013-01-01T22:00:00Z,30.3085,-88.1395,2.187,6.23,1111122 
DISL,ioos:station:DISL:CATA:1,2013-01-01T22:30:00Z,30.3085,-88.1395,2.208,6.31,1111122 
DISL,ioos:station:DISL:CATA:1,2013-01-01T23:00:00Z,30.3085,-88.1395,2.213,14.17,1111122 
DISL,ioos:station:DISL:CATA:1,2013-01-01T23:30:00Z,30.3085,-88.1395,2.204,16.35,1111122 
DISL,ioos:station:DISL:CATA:1,2013-01-02T00:00:00Z,30.3085,-88.1395,2.206,17.95,1111122 
DISL,ioos:station:DISL:CATA:1,2013-01-02T00:30:00Z,30.3085,-88.1395,2.207,18.4,1111122 
DISL,ioos:station:DISL:CATA:1,2013-01-02T01:00:00Z,30.3085,-88.1395,2.213,18.28,1111122 
DISL,ioos:station:DISL:CATA:1,2013-01-02T01:30:00Z,30.3085,-88.1395,2.22,18.37,1111122 
DISL,ioos:station:DISL:CATA:1,2013-01-02T02:00:00Z,30.3085,-88.1395,2.235,18.77,1111122 
DISL,ioos:station:DISL:CATA:1,2013-01-02T02:30:00Z,30.3085,-88.1395,2.262,17.75,1111122 
DISL,ioos:station:DISL:CATA:1,2013-01-02T03:00:00Z,30.3085,-88.1395,2.296,15.0,1111122 
DISL,ioos:station:DISL:CATA:1,2013-01-02T03:30:00Z,30.3085,-88.1395,2.281,18.73,1111122 
DISL,ioos:station:DISL:CATA:1,2013-01-02T04:00:00Z,30.3085,-88.1395,2.278,18.93,1111122 
DISL,ioos:station:DISL:CATA:1,2013-01-02T04:30:00Z,30.3085,-88.1395,2.284,17.07,1111122 
DISL,ioos:station:DISL:CATA:1,2013-01-02T05:00:00Z,30.3085,-88.1395,2.3,18.64,1111122 
DISL,ioos:station:DISL:CATA:1,2013-01-02T05:30:00Z,30.3085,-88.1395,2.302,20.16,1111122 
DISL,ioos:station:DISL:CATA:1,2013-01-02T06:00:00Z,30.3085,-88.1395,2.241,20.86,1111122 
DISL,ioos:station:DISL:CATA:1,2013-01-02T06:30:00Z,30.3085,-88.1395,2.168,20.07,1111122 
DISL,ioos:station:DISL:CATA:1,2013-01-02T07:00:00Z,30.3085,-88.1395,2.13,13.17,1111122 
DISL,ioos:station:DISL:CATA:1,2013-01-02T07:30:00Z,30.3085,-88.1395,2.119,7.66,1111122 
DISL,ioos:station:DISL:CATA:1,2013-01-02T08:00:00Z,30.3085,-88.1395,2.086,7.3,1111122 
DISL,ioos:station:DISL:CATA:1,2013-01-02T08:30:00Z,30.3085,-88.1395,2.073,6.88,1111122 
DISL,ioos:station:DISL:CATA:1,2013-01-02T09:00:00Z,30.3085,-88.1395,2.077,6.69,1111122 
DISL,ioos:station:DISL:CATA:1,2013-01-02T09:30:00Z,30.3085,-88.1395,2.07,6.75,1111122 
DISL,ioos:station:DISL:CATA:1,2013-01-02T10:00:00Z,30.3085,-88.1395,2.086,6.88,1111122 
DISL,ioos:station:DISL:CATA:1,2013-01-02T10:30:00Z,30.3085,-88.1395,2.098,6.74,1111122 
DISL,ioos:station:DISL:CATA:1,2013-01-02T11:00:00Z,30.3085,-88.1395,2.073,6.68,1111122 
DISL,ioos:station:DISL:CATA:1,2013-01-02T11:30:00Z,30.3085,-88.1395,2.013,6.53,1111122 
DISL,ioos:station:DISL:CATA:1,2013-01-02T12:00:00Z,30.3085,-88.1395,1.971,6.5,1111122 
DISL,ioos:station:DISL:CATA:1,2013-01-02T12:30:00Z,30.3085,-88.1395,1.93,6.49,1111122 
DISL,ioos:station:DISL:CATA:1,2013-01-02T13:00:00Z,30.3085,-88.1395,1.887,6.35,1111122 
DISL,ioos:station:DISL:CATA:1,2013-01-02T13:30:00Z,30.3085,-88.1395,1.882,6.36,1111122 
DISL,ioos:station:DISL:CATA:1,2013-01-02T14:00:00Z,30.3085,-88.1395,1.866,6.34,1111122 
DISL,ioos:station:DISL:CATA:1,2013-01-02T14:30:00Z,30.3085,-88.1395,1.883,6.17,1111122 
DISL,ioos:station:DISL:CATA:1,2013-01-02T15:00:00Z,30.3085,-88.1395,1.884,6.01,1111122 
DISL,ioos:station:DISL:CATA:1,2013-01-02T15:30:00Z,30.3085,-88.1395,1.893,5.88,1111122 
DISL,ioos:station:DISL:CATA:1,2013-01-02T16:00:00Z,30.3085,-88.1395,1.926,5.81,1111122 
DISL,ioos:station:DISL:CATA:1,2013-01-02T16:30:00Z,30.3085,-88.1395,1.948,5.81,1111122 
DISL,ioos:station:DISL:CATA:1,2013-01-02T17:00:00Z,30.3085,-88.1395,1.969,5.78,1111122 
DISL,ioos:station:DISL:CATA:1,2013-01-02T17:30:00Z,30.3085,-88.1395,1.986,5.83,1111122 
DISL,ioos:station:DISL:CATA:1,2013-01-02T18:00:00Z,30.3085,-88.1395,1.996,5.91,1111122 
DISL,ioos:station:DISL:CATA:1,2013-01-02T18:30:00Z,30.3085,-88.1395,1.991,5.87,1111122 
DISL,ioos:station:DISL:CATA:1,2013-01-02T19:00:00Z,30.3085,-88.1395,1.998,5.85,1111122 
DISL,ioos:station:DISL:CATA:1,2013-01-02T19:30:00Z,30.3085,-88.1395,2.0,5.75,1111122 
DISL,ioos:station:DISL:CATA:1,2013-01-02T20:00:00Z,30.3085,-88.1395,2.033,6.03,1111122 
DISL,ioos:station:DISL:CATA:1,2013-01-02T20:30:00Z,30.3085,-88.1395,2.041,13.23,1111122 
DISL,ioos:station:DISL:CATA:1,2013-01-02T21:00:00Z,30.3085,-88.1395,2.054,17.07,1111122 
DISL,ioos:station:DISL:CATA:1,2013-01-02T21:30:00Z,30.3085,-88.1395,2.075,19.57,1111122 
DISL,ioos:station:DISL:CATA:1,2013-01-02T22:00:00Z,30.3085,-88.1395,2.081,20.29,1111122 
DISL,ioos:station:DISL:CATA:1,2013-01-02T22:30:00Z,30.3085,-88.1395,2.085,20.91,1111122 
DISL,ioos:station:DISL:CATA:1,2013-01-02T23:00:00Z,30.3085,-88.1395,2.103,19.31,1111122 
DISL,ioos:station:DISL:CATA:1,2013-01-02T23:30:00Z,30.3085,-88.1395,2.114,18.09,1111122 
DISL,ioos:station:DISL:CATA:1,2013-01-03T00:00:00Z,30.3085,-88.1395,2.116,18.37,1111122 
DISL,ioos:station:DISL:CATA:1,2013-01-03T00:30:00Z,30.3085,-88.1395,2.109,20.65,1111122 
DISL,ioos:station:DISL:CATA:1,2013-01-03T01:00:00Z,30.3085,-88.1395,2.091,21.33,1111122 
DISL,ioos:station:DISL:CATA:1,2013-01-03T01:30:00Z,30.3085,-88.1395,2.101,21.47,1111122 
DISL,ioos:station:DISL:CATA:1,2013-01-03T02:00:00Z,30.3085,-88.1395,2.076,21.21,1111122 
DISL,ioos:station:DISL:CATA:1,2013-01-03T02:30:00Z,30.3085,-88.1395,2.072,15.49,1111122 
DISL,ioos:station:DISL:CATA:1,2013-01-03T03:00:00Z,30.3085,-88.1395,2.069,10.8,1111122 
DISL,ioos:station:DISL:CATA:1,2013-01-03T03:30:00Z,30.3085,-88.1395,2.083,8.89,1111122 
DISL,ioos:station:DISL:CATA:1,2013-01-03T04:00:00Z,30.3085,-88.1395,2.124,8.51,1111122 
DISL,ioos:station:DISL:CATA:1,2013-01-03T04:30:00Z,30.3085,-88.1395,2.138,8.47,1111122 
DISL,ioos:station:DISL:CATA:1,2013-01-03T05:00:00Z,30.3085,-88.1395,2.174,8.32,1111122 
DISL,ioos:station:DISL:CATA:1,2013-01-03T05:30:00Z,30.3085,-88.1395,2.14,7.8,1111122 
DISL,ioos:station:DISL:CATA:1,2013-01-03T06:00:00Z,30.3085,-88.1395,2.118,13.4,1111122 
DISL,ioos:station:DISL:CATA:1,2013-01-03T06:30:00Z,30.3085,-88.1395,2.097,16.4,1111122 
DISL,ioos:station:DISL:CATA:1,2013-01-03T07:00:00Z,30.3085,-88.1395,2.064,18.42,1111122 
DISL,ioos:station:DISL:CATA:1,2013-01-03T07:30:00Z,30.3085,-88.1395,2.053,19.31,1111122 
DISL,ioos:station:DISL:CATA:1,2013-01-03T08:00:00Z,30.3085,-88.1395,2.037,20.49,1111122 
DISL,ioos:station:DISL:CATA:1,2013-01-03T08:30:00Z,30.3085,-88.1395,2.028,20.6,1111122 
DISL,ioos:station:DISL:CATA:1,2013-01-03T09:00:00Z,30.3085,-88.1395,2.027,20.94,1111122 
DISL,ioos:station:DISL:CATA:1,2013-01-03T09:30:00Z,30.3085,-88.1395,2.011,15.08,1111122 
DISL,ioos:station:DISL:CATA:1,2013-01-03T10:00:00Z,30.3085,-88.1395,1.995,10.78,1111122 
DISL,ioos:station:DISL:CATA:1,2013-01-03T10:30:00Z,30.3085,-88.1395,1.997,7.95,1111122 
DISL,ioos:station:DISL:CATA:1,2013-01-03T11:00:00Z,30.3085,-88.1395,1.974,7.72,1111122 
DISL,ioos:station:DISL:CATA:1,2013-01-03T11:30:00Z,30.3085,-88.1395,1.938,7.64,1111122 
DISL,ioos:station:DISL:CATA:1,2013-01-03T12:00:00Z,30.3085,-88.1395,1.921,7.57,1111122 
DISL,ioos:station:DISL:CATA:1,2013-01-03T12:30:00Z,30.3085,-88.1395,1.93,7.46,1111122 
DISL,ioos:station:DISL:CATA:1,2013-01-03T13:00:00Z,30.3085,-88.1395,1.908,6.83,1111122 
DISL,ioos:station:DISL:CATA:1,2013-01-03T13:30:00Z,30.3085,-88.1395,1.882,7.06,1111122 
DISL,ioos:station:DISL:CATA:1,2013-01-03T14:00:00Z,30.3085,-88.1395,1.867,6.98,1111122 
DISL,ioos:station:DISL:CATA:1,2013-01-03T14:30:00Z,30.3085,-88.1395,1.842,7.03,1111122 
DISL,ioos:station:DISL:CATA:1,2013-01-03T15:00:00Z,30.3085,-88.1395,1.81,6.96,1111122 
DISL,ioos:station:DISL:CATA:1,2013-01-03T15:30:00Z,30.3085,-88.1395,1.819,6.75,1111122 
DISL,ioos:station:DISL:CATA:1,2013-01-03T16:00:00Z,30.3085,-88.1395,1.856,6.48,1111122 
DISL,ioos:station:DISL:CATA:1,2013-01-03T16:30:00Z,30.3085,-88.1395,1.882,6.38,1111122 
DISL,ioos:station:DISL:CATA:1,2013-01-03T17:00:00Z,30.3085,-88.1395,1.887,6.35,1111122 
DISL,ioos:station:DISL:CATA:1,2013-01-03T17:30:00Z,30.3085,-88.1395,1.864,6.58,1111122 
DISL,ioos:station:DISL:CATA:1,2013-01-03T18:00:00Z,30.3085,-88.1395,1.901,6.61,1111122 
DISL,ioos:station:DISL:CATA:1,2013-01-03T18:30:00Z,30.3085,-88.1395,1.909,6.57,1111122 
DISL,ioos:station:DISL:CATA:1,2013-01-03T19:00:00Z,30.3085,-88.1395,1.931,6.57,1111122 
DISL,ioos:station:DISL:CATA:1,2013-01-03T19:30:00Z,30.3085,-88.1395,1.973,6.55,1111122 
DISL,ioos:station:DISL:CATA:1,2013-01-03T20:00:00Z,30.3085,-88.1395,1.985,6.54,1111122 
DISL,ioos:station:DISL:CATA:1,2013-01-03T20:30:00Z,30.3085,-88.1395,1.984,6.42,1111122 
DISL,ioos:station:DISL:CATA:1,2013-01-03T21:00:00Z,30.3085,-88.1395,1.998,8.17,1111122 
DISL,ioos:station:DISL:CATA:1,2013-01-03T21:30:00Z,30.3085,-88.1395,2.016,9.7,1111122 
DISL,ioos:station:DISL:CATA:1,2013-01-03T22:00:00Z,30.3085,-88.1395,2.014,9.11,1111122 
DISL,ioos:station:DISL:CATA:1,2013-01-03T22:30:00Z,30.3085,-88.1395,1.991,9.23,1111122 
DISL,ioos:station:DISL:CATA:1,2013-01-03T23:00:00Z,30.3085,-88.1395,1.989,14.2,1111122 
DISL,ioos:station:DISL:CATA:1,2013-01-03T23:30:00Z,30.3085,-88.1395,2.016,14.76,1111122 
DISL,ioos:station:DISL:CATA:1,2013-01-04T00:00:00Z,30.3085,-88.1395,2.02,14.17,1111122 
DISL,ioos:station:DISL:CATA:1,2013-01-04T00:30:00Z,30.3085,-88.1395,2.006,16.65,1111122 
DISL,ioos:station:DISL:CATA:1,2013-01-04T01:00:00Z,30.3085,-88.1395,2.005,18.06,1111122 
DISL,ioos:station:DISL:CATA:1,2013-01-04T01:30:00Z,30.3085,-88.1395,2.0,17.82,1111122 
DISL,ioos:station:DISL:CATA:1,2013-01-04T02:00:00Z,30.3085,-88.1395,2.0,18.53,1111122 
DISL,ioos:station:DISL:CATA:1,2013-01-04T02:30:00Z,30.3085,-88.1395,2.02,18.89,1111122 
DISL,ioos:station:DISL:CATA:1,2013-01-04T03:00:00Z,30.3085,-88.1395,1.99,19.14,1111122 
DISL,ioos:station:DISL:CATA:1,2013-01-04T03:30:00Z,30.3085,-88.1395,1.964,19.22,1111122 
DISL,ioos:station:DISL:CATA:1,2013-01-04T04:00:00Z,30.3085,-88.1395,1.958,14.98,1111122 
DISL,ioos:station:DISL:CATA:1,2013-01-04T04:30:00Z,30.3085,-88.1395,1.959,9.19,1111122 
DISL,ioos:station:DISL:CATA:1,2013-01-04T05:00:00Z,30.3085,-88.1395,1.953,6.77,1111122 
DISL,ioos:station:DISL:CATA:1,2013-01-04T05:30:00Z,30.3085,-88.1395,1.944,6.62,1111122 
DISL,ioos:station:DISL:CATA:1,2013-01-04T06:00:00Z,30.3085,-88.1395,1.941,6.41,1111122 
DISL,ioos:station:DISL:CATA:1,2013-01-04T06:30:00Z,30.3085,-88.1395,1.976,6.33,1111122 
DISL,ioos:station:DISL:CATA:1,2013-01-04T07:00:00Z,30.3085,-88.1395,1.975,6.52,1111122 
DISL,ioos:station:DISL:CATA:1,2013-01-04T07:30:00Z,30.3085,-88.1395,1.985,6.62,1111122 
DISL,ioos:station:DISL:CATA:1,2013-01-04T08:00:00Z,30.3085,-88.1395,1.969,6.57,1111122 
DISL,ioos:station:DISL:CATA:1,2013-01-04T08:30:00Z,30.3085,-88.1395,1.967,6.53,1111122 
DISL,ioos:station:DISL:CATA:1,2013-01-04T09:00:00Z,30.3085,-88.1395,1.95,6.48,1111122 
DISL,ioos:station:DISL:CATA:1,2013-01-04T09:30:00Z,30.3085,-88.1395,1.923,6.4,1111122 
DISL,ioos:station:DISL:CATA:1,2013-01-04T10:00:00Z,30.3085,-88.1395,1.921,6.26,1111122 
DISL,ioos:station:DISL:CATA:1,2013-01-04T10:30:00Z,30.3085,-88.1395,1.917,6.21,1111122 
DISL,ioos:station:DISL:CATA:1,2013-01-04T11:00:00Z,30.3085,-88.1395,1.908,6.2,1111122 
DISL,ioos:station:DISL:CATA:1,2013-01-04T11:30:00Z,30.3085,-88.1395,1.898,6.19,1111122 
DISL,ioos:station:DISL:CATA:1,2013-01-04T12:00:00Z,30.3085,-88.1395,1.875,6.19,1111122 
DISL,ioos:station:DISL:CATA:1,2013-01-04T12:30:00Z,30.3085,-88.1395,1.846,6.17,1111122 
DISL,ioos:station:DISL:CATA:1,2013-01-04T13:00:00Z,30.3085,-88.1395,1.842,6.19,1111122 
DISL,ioos:station:DISL:CATA:1,2013-01-04T13:30:00Z,30.3085,-88.1395,1.832,6.18,1111122 
DISL,ioos:station:DISL:CATA:1,2013-01-04T14:00:00Z,30.3085,-88.1395,1.822,6.16,1111122 
DISL,ioos:station:DISL:CATA:1,2013-01-04T14:30:00Z,30.3085,-88.1395,1.828,6.18,1111122 
DISL,ioos:station:DISL:CATA:1,2013-01-04T15:00:00Z,30.3085,-88.1395,1.839,6.18,1111122 
DISL,ioos:station:DISL:CATA:1,2013-01-04T15:30:00Z,30.3085,-88.1395,1.868,6.14,1111122 
DISL,ioos:station:DISL:CATA:1,2013-01-04T16:00:00Z,30.3085,-88.1395,1.914,6.1,1111122 
DISL,ioos:station:DISL:CATA:1,2013-01-04T16:30:00Z,30.3085,-88.1395,1.937,6.1,1111122 
DISL,ioos:station:DISL:CATA:1,2013-01-04T17:00:00Z,30.3085,-88.1395,1.947,6.12,1111122 
DISL,ioos:station:DISL:CATA:1,2013-01-04T17:30:00Z,30.3085,-88.1395,1.95,6.18,1111122 
DISL,ioos:station:DISL:CATA:1,2013-01-04T18:00:00Z,30.3085,-88.1395,1.968,6.2,1111122 
DISL,ioos:station:DISL:CATA:1,2013-01-04T18:30:00Z,30.3085,-88.1395,1.987,6.14,1111122 
DISL,ioos:station:DISL:CATA:1,2013-01-04T19:00:00Z,30.3085,-88.1395,2.0,6.14,1111122 
DISL,ioos:station:DISL:CATA:1,2013-01-04T19:30:00Z,30.3085,-88.1395,2.075,7.96,1111122 
DISL,ioos:station:DISL:CATA:1,2013-01-04T20:00:00Z,30.3085,-88.1395,2.091,7.91,1111122 
DISL,ioos:station:DISL:CATA:1,2013-01-04T20:30:00Z,30.3085,-88.1395,2.13,8.0,1111122 
DISL,ioos:station:DISL:CATA:1,2013-01-04T21:00:00Z,30.3085,-88.1395,2.157,8.29,1111122 
DISL,ioos:station:DISL:CATA:1,2013-01-04T21:30:00Z,30.3085,-88.1395,2.142,18.5,1111122 
DISL,ioos:station:DISL:CATA:1,2013-01-04T22:00:00Z,30.3085,-88.1395,2.161,16.41,1111122 
DISL,ioos:station:DISL:CATA:1,2013-01-04T22:30:00Z,30.3085,-88.1395,2.155,20.03,1111122 
DISL,ioos:station:DISL:CATA:1,2013-01-04T23:00:00Z,30.3085,-88.1395,2.161,20.15,1111122 
DISL,ioos:station:DISL:CATA:1,2013-01-04T23:30:00Z,30.3085,-88.1395,2.167,17.11,1111122 
DISL,ioos:station:DISL:CATA:1,2013-01-05T00:00:00Z,30.3085,-88.1395,2.171,20.46,1111122 
DISL,ioos:station:DISL:CATA:1,2013-01-05T00:30:00Z,30.3085,-88.1395,2.152,24.1,1111122 
DISL,ioos:station:DISL:CATA:1,2013-01-05T01:00:00Z,30.3085,-88.1395,2.133,25.07,1111122 
DISL,ioos:station:DISL:CATA:1,2013-01-05T01:30:00Z,30.3085,-88.1395,2.13,25.26,1111122 
DISL,ioos:station:DISL:CATA:1,2013-01-05T02:00:00Z,30.3085,-88.1395,2.107,25.0,1111122 
DISL,ioos:station:DISL:CATA:1,2013-01-05T02:30:00Z,30.3085,-88.1395,2.087,24.98,1111122 
DISL,ioos:station:DISL:CATA:1,2013-01-05T03:00:00Z,30.3085,-88.1395,2.072,25.54,1111122 
DISL,ioos:station:DISL:CATA:1,2013-01-05T03:30:00Z,30.3085,-88.1395,2.052,25.64,1111122 
DISL,ioos:station:DISL:CATA:1,2013-01-05T04:00:00Z,30.3085,-88.1395,2.046,19.65,1111122 
DISL,ioos:station:DISL:CATA:1,2013-01-05T04:30:00Z,30.3085,-88.1395,2.034,9.56,1111122 
DISL,ioos:station:DISL:CATA:1,2013-01-05T05:00:00Z,30.3085,-88.1395,2.016,5.43,1111122 
DISL,ioos:station:DISL:CATA:1,2013-01-05T05:30:00Z,30.3085,-88.1395,1.99,5.05,1111122 
DISL,ioos:station:DISL:CATA:1,2013-01-05T06:00:00Z,30.3085,-88.1395,1.959,4.91,1111122 
DISL,ioos:station:DISL:CATA:1,2013-01-05T06:30:00Z,30.3085,-88.1395,1.93,4.88,1111122 
DISL,ioos:station:DISL:CATA:1,2013-01-05T07:00:00Z,30.3085,-88.1395,1.912,5.02,1111122 
DISL,ioos:station:DISL:CATA:1,2013-01-05T07:30:00Z,30.3085,-88.1395,1.914,5.02,1111122 
DISL,ioos:station:DISL:CATA:1,2013-01-05T08:00:00Z,30.3085,-88.1395,1.903,5.09,1111122 
DISL,ioos:station:DISL:CATA:1,2013-01-05T08:30:00Z,30.3085,-88.1395,1.916,5.17,1111122 
DISL,ioos:station:DISL:CATA:1,2013-01-05T09:00:00Z,30.3085,-88.1395,1.933,5.2,1111122 
DISL,ioos:station:DISL:CATA:1,2013-01-05T09:30:00Z,30.3085,-88.1395,1.93,5.21,1111122 
DISL,ioos:station:DISL:CATA:1,2013-01-05T10:00:00Z,30.3085,-88.1395,1.926,5.2,1111122 
DISL,ioos:station:DISL:CATA:1,2013-01-05T10:30:00Z,30.3085,-88.1395,1.92,5.21,1111122 
DISL,ioos:station:DISL:CATA:1,2013-01-05T11:00:00Z,30.3085,-88.1395,1.906,5.31,1111122 
DISL,ioos:station:DISL:CATA:1,2013-01-05T11:30:00Z,30.3085,-88.1395,1.885,5.26,1111122 
DISL,ioos:station:DISL:CATA:1,2013-01-05T12:00:00Z,30.3085,-88.1395,1.866,5.23,1111122 
DISL,ioos:station:DISL:CATA:1,2013-01-05T12:30:00Z,30.3085,-88.1395,1.869,4.96,1111122 
DISL,ioos:station:DISL:CATA:1,2013-01-05T13:00:00Z,30.3085,-88.1395,1.876,5.04,1111122 
DISL,ioos:station:DISL:CATA:1,2013-01-05T13:30:00Z,30.3085,-88.1395,1.892,4.73,1111122 
DISL,ioos:station:DISL:CATA:1,2013-01-05T14:00:00Z,30.3085,-88.1395,1.903,5.27,1111122 
DISL,ioos:station:DISL:CATA:1,2013-01-05T14:30:00Z,30.3085,-88.1395,1.913,5.34,1111122 
DISL,ioos:station:DISL:CATA:1,2013-01-05T15:00:00Z,30.3085,-88.1395,1.936,5.34,1111122 
DISL,ioos:station:DISL:CATA:1,2013-01-05T15:30:00Z,30.3085,-88.1395,1.945,5.36,1111122 
DISL,ioos:station:DISL:CATA:1,2013-01-05T16:00:00Z,30.3085,-88.1395,1.952,5.41,1111122 
DISL,ioos:station:DISL:CATA:1,2013-01-05T16:30:00Z,30.3085,-88.1395,1.976,5.54,1111122 
DISL,ioos:station:DISL:CATA:1,2013-01-05T17:00:00Z,30.3085,-88.1395,2.006,5.83,1111122 
DISL,ioos:station:DISL:CATA:1,2013-01-05T17:30:00Z,30.3085,-88.1395,2.036,5.98,1111122 
DISL,ioos:station:DISL:CATA:1,2013-01-05T18:00:00Z,30.3085,-88.1395,2.051,6.18,1111122 
DISL,ioos:station:DISL:CATA:1,2013-01-05T18:30:00Z,30.3085,-88.1395,2.08,6.37,1111122 
DISL,ioos:station:DISL:CATA:1,2013-01-05T19:00:00Z,30.3085,-88.1395,2.093,6.52,1111122 
DISL,ioos:station:DISL:CATA:1,2013-01-05T19:30:00Z,30.3085,-88.1395,2.131,6.4,1111122 
DISL,ioos:station:DISL:CATA:1,2013-01-05T20:00:00Z,30.3085,-88.1395,2.156,6.19,1111122 
DISL,ioos:station:DISL:CATA:1,2013-01-05T20:30:00Z,30.3085,-88.1395,2.164,6.75,1111122 
DISL,ioos:station:DISL:CATA:1,2013-01-05T21:00:00Z,30.3085,-88.1395,2.197,7.72,1111122 
DISL,ioos:station:DISL:CATA:1,2013-01-05T21:30:00Z,30.3085,-88.1395,2.196,11.68,1111122 
DISL,ioos:station:DISL:CATA:1,2013-01-05T22:00:00Z,30.3085,-88.1395,2.203,16.79,1111122 
DISL,ioos:station:DISL:CATA:1,2013-01-05T22:30:00Z,30.3085,-88.1395,2.212,22.54,1111122 
DISL,ioos:station:DISL:CATA:1,2013-01-05T23:00:00Z,30.3085,-88.1395,2.228,23.61,1111122 
DISL,ioos:station:DISL:CATA:1,2013-01-05T23:30:00Z,30.3085,-88.1395,2.207,24.21,1111122 
DISL,ioos:station:DISL:CATA:1,2013-01-06T00:00:00Z,30.3085,-88.1395,2.18,25.24,1111122 
DISL,ioos:station:DISL:CATA:1,2013-01-06T00:30:00Z,30.3085,-88.1395,2.182,25.54,1111122 
DISL,ioos:station:DISL:CATA:1,2013-01-06T01:00:00Z,30.3085,-88.1395,2.151,23.98,1111122 
DISL,ioos:station:DISL:CATA:1,2013-01-06T01:30:00Z,30.3085,-88.1395,2.129,15.24,1111122 
DISL,ioos:station:DISL:CATA:1,2013-01-06T02:00:00Z,30.3085,-88.1395,2.121,9.1,1111122 
DISL,ioos:station:DISL:CATA:1,2013-01-06T02:30:00Z,30.3085,-88.1395,2.112,6.74,1111122 
DISL,ioos:station:DISL:CATA:1,2013-01-06T03:00:00Z,30.3085,-88.1395,2.092,6.45,1111122 
DISL,ioos:station:DISL:CATA:1,2013-01-06T03:30:00Z,30.3085,-88.1395,2.062,6.18,1111122 
DISL,ioos:station:DISL:CATA:1,2013-01-06T04:00:00Z,30.3085,-88.1395,2.029,6.33,1111122 
DISL,ioos:station:DISL:CATA:1,2013-01-06T04:30:00Z,30.3085,-88.1395,2.024,6.38,1111122 
DISL,ioos:station:DISL:CATA:1,2013-01-06T05:00:00Z,30.3085,-88.1395,2.009,6.34,1111122 
DISL,ioos:station:DISL:CATA:1,2013-01-06T05:30:00Z,30.3085,-88.1395,2.012,6.19,1111122 
DISL,ioos:station:DISL:CATA:1,2013-01-06T06:00:00Z,30.3085,-88.1395,2.003,6.17,1111122 
DISL,ioos:station:DISL:CATA:1,2013-01-06T06:30:00Z,30.3085,-88.1395,1.991,6.11,1111122 
DISL,ioos:station:DISL:CATA:1,2013-01-06T07:00:00Z,30.3085,-88.1395,2.001,6.0,1111122 
DISL,ioos:station:DISL:CATA:1,2013-01-06T07:30:00Z,30.3085,-88.1395,1.98,6.03,1111122 
DISL,ioos:station:DISL:CATA:1,2013-01-06T08:00:00Z,30.3085,-88.1395,1.956,6.25,1111122 
DISL,ioos:station:DISL:CATA:1,2013-01-06T08:30:00Z,30.3085,-88.1395,1.956,6.34,1111122 
DISL,ioos:station:DISL:CATA:1,2013-01-06T09:00:00Z,30.3085,-88.1395,1.958,6.27,1111122 
DISL,ioos:station:DISL:CATA:1,2013-01-06T09:30:00Z,30.3085,-88.1395,1.94,6.19,1111122 
DISL,ioos:station:DISL:CATA:1,2013-01-06T10:00:00Z,30.3085,-88.1395,1.942,6.05,1111122 
DISL,ioos:station:DISL:CATA:1,2013-01-06T10:30:00Z,30.3085,-88.1395,1.94,5.79,1111122 
DISL,ioos:station:DISL:CATA:1,2013-01-06T11:00:00Z,30.3085,-88.1395,1.905,5.67,1111122 
DISL,ioos:station:DISL:CATA:1,2013-01-06T11:30:00Z,30.3085,-88.1395,1.903,5.45,1111122 
DISL,ioos:station:DISL:CATA:1,2013-01-06T12:00:00Z,30.3085,-88.1395,1.9,5.4,1111122 
DISL,ioos:station:DISL:CATA:1,2013-01-06T12:30:00Z,30.3085,-88.1395,1.898,5.41,1111122 
DISL,ioos:station:DISL:CATA:1,2013-01-06T13:00:00Z,30.3085,-88.1395,1.914,5.44,1111122 
DISL,ioos:station:DISL:CATA:1,2013-01-06T13:30:00Z,30.3085,-88.1395,1.93,5.42,1111122 
DISL,ioos:station:DISL:CATA:1,2013-01-06T14:00:00Z,30.3085,-88.1395,1.951,5.4,1111122 
DISL,ioos:station:DISL:CATA:1,2013-01-06T14:30:00Z,30.3085,-88.1395,1.961,5.36,1111122 
DISL,ioos:station:DISL:CATA:1,2013-01-06T15:00:00Z,30.3085,-88.1395,1.971,5.33,1111122 